Location: Divišovice
(49.6007°N, 14.5311°E)
Time: 12:25:42
(UTC+00:00)

Daily predictions for brighter satellites

Satellite Brightness Start Highest point End
(mag) Time Altitude Azimuth Time Altitude Azimuth Time Altitude Azimuth
MetOp-B 4.3 19:50:52 10° SSE 19:56:13 83° WSW 20:01:37 10° NNW
Cosmos 2315 Rocket 4.3 19:50:30 10° SSE 19:56:37 52° E 20:02:43 10° NNE
SL-8 R/B 3.7 19:53:14 10° WSW 19:58:00 67° SSE 20:02:48 10° E
SL-24 R/B 4.3 19:56:06 10° S 20:00:19 75° WSW 20:04:53 10° NNW
Tiangong 2.8 19:59:06 10° SW 20:01:16 17° S 20:03:27 10° SE
SL-14 R/B 4.2 19:58:29 10° SSW 20:02:14 50° WNW 20:06:05 10° N
Cosmos 1300 3.6 20:02:56 10° NNW 20:06:36 47° W 20:10:14 10° SSW
Cosmos 1271 Rocket 3.6 20:04:30 10° N 20:08:14 36° ENE 20:11:56 10° SE
Cosmos 1709 Rocket 4.0 20:02:29 10° N 20:08:42 84° E 20:14:56 10° S
Terra 2.3 20:07:29 10° SE 20:12:05 50° ENE 20:16:42 10° N
Ariane Rocket 3.8 20:07:12 10° S 20:12:09 51° W 20:17:09 10° NNW
Cosmos 1954 Rocket 4.3 20:07:02 10° NNW 20:12:17 59° ENE 20:17:26 10° SE
Meteor 2-5 Rocket 3.8 20:07:53 10° S 20:13:19 63° E 20:18:49 10° NNE
ARIANE 5 R/B 3.5 20:09:18 10° SE 20:13:26 39° ENE 20:17:35 10° N
FALCON 9 DEB 2.9 20:11:02 10° SW 20:14:15 63° SSE 20:17:30 10° ENE
Cosmos 1943 4.0 20:17:47 10° SW 20:23:22 56° NW 20:28:57 10° NNE
USA 267 3.5 20:18:59 10° ENE 20:25:17 47° SE 20:31:33 10° SSW
Cosmos 1603 4.5 20:22:49 10° SW 20:28:26 58° NW 20:34:07 10° NNE
Cosmos 1455 Rocket 3.4 20:25:08 10° NNW 20:29:28 62° W 20:33:43 10° S
NOSS 2-1 (C) 4.1 20:25:52 10° NW 20:30:06 64° NE 20:35:50 11° SE
CZ-4B R/B 3.6 20:30:15 10° NNW 20:32:38 23° WNW 20:34:59 10° WSW
USA 245 4.4 20:29:13 10° S 20:34:07 49° WSW 20:38:07 10° NNW
Cosmos 1025 Rocket 3.1 20:34:21 10° SSW 20:38:36 77° W 20:42:55 10° N
NOSS 2-1 (D) 4.0 20:36:10 10° NW 20:40:29 75° NE 20:45:56 13° SE
Cosmos 1371 Rocket 4.0 20:37:51 10° SSW 20:43:05 84° ESE 20:48:24 10° NNE
Spot 2 Rocket 3.9 20:38:11 10° S 20:43:14 63° WSW 20:48:19 10° NNW
Cosmos 1452 Rocket 4.5 20:40:48 13° SSE 20:44:33 29° E 20:49:04 10° NE
Helios 1A Rocket 3.6 20:45:46 10° S 20:49:42 50° W 20:53:42 10° NNW
Cosmos 1607 3.9 20:43:43 10° SSW 20:49:54 68° SE 20:56:03 10° NE
Cosmos 1455 2.3 20:49:11 10° NNW 20:52:58 71° W 20:56:08 14° S
Cosmos 1703 3.9 20:51:46 17° SSE 20:54:18 38° E 20:57:54 10° NNE
Cosmos 1980 Rocket 4.0 20:50:56 10° NNW 20:55:33 24° NE 21:00:07 10° E
ATLAS 2AS CENTAUR R/B 2.8 20:48:26 10° NW 20:55:38 80° SW 21:01:13 16° SSE
Cosmos 1536 Rocket 3.7 20:53:21 14° S 20:56:54 58° E 21:01:11 10° NNE
Cosmos 1697 Rocket 3.7 20:54:41 10° NNW 20:59:58 39° NE 21:04:56 11° ESE
USA 234 3.3 20:54:09 10° ESE 21:00:43 90° SSE 21:07:20 10° WNW
Lacrosse 4 Rocket 4.3 20:59:31 10° W 21:02:40 21° NW 21:05:48 10° N
Meteor 1-24 Rocket 4.1 20:58:06 10° SSW 21:03:20 61° WNW 21:08:42 10° N
Cosmos 1975 Rocket 4.5 20:59:18 10° SW 21:03:28 38° WNW 21:07:38 10° N
Cosmos 1606 Rocket 4.4 21:00:08 10° N 21:04:10 36° ENE 21:06:57 17° SE
Cosmos 1624 Rocket 4.2 20:59:19 10° SSW 21:04:32 73° WNW 21:09:47 10° NNE
SPOT 5 3.8 21:01:13 10° SSW 21:05:23 37° W 21:09:29 10° NNW
Cosmos 2184 Rocket 4.0 21:04:41 10° N 21:10:54 89° E 21:15:55 16° S
Cosmos 2228 3.0 21:09:19 10° N 21:13:34 67° ENE 21:16:17 21° SSE
CZ-2C R/B 4.2 21:09:17 10° N 21:13:53 62° WNW 21:18:21 10° SSW
RESURS DK-1 2.9 21:13:46 10° NNW 21:17:49 50° NE 21:20:38 18° SE
ATLAS 5 CENTAUR R/B 4.4 21:13:06 10° NW 21:22:15 25° W 21:26:07 10° SSW
Lacrosse 5 rocket 2.0 21:18:40 10° WNW 21:22:17 37° SW 21:24:15 23° S
Cosmos 1656 3.6 21:17:26 10° NNW 21:22:55 83° WSW 21:26:45 20° SSE
Meteor 2-1 Rocket 4.3 21:18:42 10° N 21:24:12 66° ENE 21:27:58 20° SSE
Cosmos 2056 Rocket 4.4 21:19:20 10° SW 21:24:35 53° WNW 21:29:55 10° NNE
Cosmos 1741 Rocket 4.0 21:22:41 10° NNW 21:28:02 85° ENE 21:31:37 21° SSE
ERS-1 Rocket 4.4 21:24:39 10° SSW 21:29:03 30° W 21:33:30 10° NNW
Cosmos 1726 Rocket 3.9 21:26:03 10° N 21:30:17 51° ENE 21:32:43 23° SE
Cosmos 1833 Rocket 3.2 21:27:39 20° SSE 21:31:01 40° ESE 21:36:14 10° NE
ALOS 2 3.9 21:30:06 16° ESE 21:32:57 31° ENE 21:36:48 10° N
Lacrosse 5 2.1 21:28:14 10° WNW 21:33:14 56° SW 21:36:18 23° SSE
Tiangong 3.3 21:35:15 10° SW 21:36:05 14° SW 21:36:05 14° SW
Cosmos 2084 3.4 21:35:01 10° SW 21:38:51 70° NW 21:42:44 10° NE
NOSS 2-1 (E) 4.5 21:34:33 10° NW 21:39:05 52° SW 21:43:01 21° SSE
SL-8 R/B 3.6 21:35:38 10° W 21:40:27 77° S 21:45:17 10° ESE
Cosmos 968 Rocket 4.3 21:39:28 10° NNW 21:44:25 43° ENE 21:48:11 17° SE
Cosmos 2082 Rocket 3.5 21:45:07 19° SE 21:47:23 25° ESE 21:51:54 10° NE
ARIANE 5 R/B 4.2 21:46:38 12° SSW 21:49:59 27° W 21:53:49 10° NW
Terra 3.6 21:46:19 10° SW 21:50:06 23° W 21:53:55 10° NW
FALCON 9 DEB 4.0 21:47:27 10° W 21:50:38 48° N 21:53:49 10° ENE
Cosmos 2058 Rocket 3.4 21:51:45 10° N 21:56:05 56° ENE 21:58:21 26° SE
Cosmos 2344 4.2 21:50:26 10° NW 21:59:10 88° NE 22:10:08 14° SE
USA 276 1.9 21:58:53 48° S 21:59:11 51° SSE 22:02:01 10° E
Cosmos 1850 Rocket 4.4 21:54:58 10° NNW 22:00:02 52° WSW 22:03:00 23° S
Cosmos 2181 Rocket 4.5 21:57:56 22° SSE 22:01:32 46° E 22:07:24 10° NNE
Cosmos 1892 Rocket 3.6 22:02:20 28° S 22:04:36 72° E 22:08:59 10° NNE
GP-B 3.1 22:00:14 10° N 22:04:42 87° W 22:07:04 27° S
Cosmos 1869 4.5 22:01:44 10° N 22:05:14 32° ENE 22:07:01 21° ESE
USA 267 3.5 22:02:00 10° ENE 22:08:33 73° NNW 22:15:03 10° WSW
Cosmos 1408 2.5 22:13:04 39° SSE 22:14:07 64° E 22:17:33 10° NNE
Spot 4 3.9 22:11:56 28° S 22:14:29 74° WSW 22:19:17 10° NNW
COSMOS 2406 3.5 22:13:20 25° S 22:16:32 54° ESE 22:22:08 10° NE
Cosmos 1867 4.2 22:14:22 10° NW 22:19:46 54° NE 22:24:37 12° ESE
ADEOS Rocket 3.5 22:15:50 23° SSE 22:20:38 80° ENE 22:28:16 10° NNW
ASTEX 1 4.0 22:16:13 10° N 22:21:04 52° WNW 22:24:30 19° SSW
Cosmos 1331 Rocket 4.1 22:19:08 19° SSW 22:23:00 79° WNW 22:28:21 10° NNE
Cosmos 1626 Rocket 4.3 22:21:20 27° SE 22:23:00 39° E 22:27:02 10° NNE
Cosmos 2369 3.7 22:18:37 10° NNW 22:24:23 87° ENE 22:27:54 25° SSE
Okean 1-7 Rocket 4.0 22:23:41 30° SSE 22:25:31 48° E 22:29:50 10° NNE
Meteor 1-11 4.2 22:22:19 25° S 22:25:44 85° E 22:31:22 10° NNE
Cosmos 1452 Rocket 4.4 22:21:24 10° SW 22:26:28 47° WNW 22:31:33 10° NNE
Cosmos 1825 2.8 22:26:15 32° SE 22:27:22 42° E 22:30:56 10° NNE
SL-16 R/B 3.8 22:23:36 10° NNW 22:28:38 31° NE 22:33:37 10° ESE
Cosmos 192 4.3 22:27:12 29° S 22:29:42 69° ESE 22:34:35 10° NNE
Cosmos-2242 4.4 22:26:28 10° N 22:30:14 30° ENE 22:32:34 18° ESE
H-2A R/B 3.4 22:27:08 10° NNE 22:31:21 82° ESE 22:33:14 32° S
Cosmos 1980 Rocket 2.2 22:34:30 10° NNW 22:40:15 83° WSW 22:43:31 27° SSE
Cosmos 1697 Rocket 3.3 22:38:43 10° NW 22:43:59 42° WSW 22:46:39 26° SSW
ERS-2 2.3 22:40:26 10° NNE 22:43:59 56° ESE 22:44:58 40° SSE
USA 234 4.0 22:41:26 24° S 22:44:15 33° SW 22:50:06 10° WNW
ATLAS 2AS CENTAUR R/B 4.3 22:40:48 10° WNW 22:45:25 19° WSW 22:48:38 14° SW
PSLV R/B 4.4 22:41:28 10° NNE 22:46:01 43° E 22:48:03 28° SSE
Cosmos 1302 Rocket 3.9 22:43:52 27° SSW 22:46:49 85° ESE 22:52:03 10° NNE
Cosmos 1892 3.0 22:48:56 31° SW 22:50:28 56° WNW 22:54:11 10° N
SJ 16-02 3.1 22:49:56 10° N 22:53:45 27° NE 22:57:32 10° ESE
RESURS DK-1 4.0 22:52:25 10° WNW 22:55:29 20° WSW 22:56:28 19° SW
In-Cosmos 22 Rocket 4.2 22:52:54 26° SSW 22:56:11 83° WNW 23:01:44 10° N
SL-8 Rocket 4.5 22:54:32 10° NNW 23:00:33 51° W 23:04:12 23° SSW
Cosmos 2218 Rocket 4.4 23:00:08 10° NNW 23:06:21 55° W 23:10:07 24° SSW
Cosmos 1758 Rocket 3.8 23:07:07 33° SSE 23:08:52 58° E 23:13:09 10° NNE
ALOS 2 3.7 23:07:30 24° SW 23:09:14 33° W 23:13:14 10° NNW
Cosmos 2322 Rocket 3.3 23:04:43 10° NNW 23:10:06 42° NE 23:15:28 10° ESE
Cosmos 2278 3.7 23:04:32 10° NNW 23:10:17 81° WSW 23:13:40 26° SSE
Aureole 1 Rocket 4.4 23:04:18 10° NNW 23:10:54 85° ENE 23:16:50 20° SSE
Cosmos 2058 4.1 23:10:19 23° SE 23:12:03 33° E 23:15:49 10° NNE
Nimbus 7 Rocket 4.4 23:06:39 10° NNE 23:12:35 74° ESE 23:15:58 27° S
BREEZE-M DEB (TANK) 4.3 22:57:39 10° W 23:13:26 84° SSW 23:17:36 10° ESE
CZ-2D R/B 4.3 23:11:22 10° ENE 23:13:35 13° E 23:15:48 10° ESE
Cosmos 1833 Rocket 3.8 23:09:40 10° WSW 23:14:57 41° NW 23:20:17 10° NNE
Lacrosse 5 3.9 23:13:25 10° W 23:15:15 12° WSW 23:15:28 12° WSW
SL-16 R/B 4.5 23:13:12 10° ESE 23:18:05 25° NE 23:22:58 10° N
Cosmos 2084 Rocket 3.5 23:14:47 10° NW 23:18:33 48° SW 23:19:33 38° S
Cosmos 1812 Rocket 3.6 23:14:22 10° NNW 23:18:52 75° W 23:20:47 33° S
SL-8 R/B 4.1 23:18:10 10° W 23:22:42 41° SSW 23:24:36 28° SSE
Cosmos 2221 4.1 23:22:51 10° N 23:26:41 30° ENE 23:29:50 14° SE
FALCON 9 DEB 3.8 23:24:01 10° WNW 23:27:14 52° NNE 23:30:28 10° E
SL-19 R/B 4.2 23:27:30 35° SSE 23:28:52 71° ENE 23:32:44 10° NNW
Cosmos 2082 Rocket 2.5 23:26:56 19° SW 23:31:01 65° WNW 23:36:43 10° NNE
ATLAS 5 CENTAUR R/B 1.9 23:30:58 33° SSE 23:31:48 37° ESE 23:35:38 10° NE
Resurs 1-4 Rocket 4.0 23:28:26 10° NE 23:32:12 19° E 23:35:51 10° SE
Cosmos 1633 2.6 23:31:19 39° SW 23:32:24 63° WNW 23:35:53 10° N
Cosmos 1602 Rocket 3.8 23:32:14 30° SSW 23:34:12 60° WNW 23:38:30 10° N
USA 276 1.9 23:31:29 10° W 23:34:24 80° N 23:37:19 10° E
BREEZE-M DEB (TANK) 4.3 23:31:54 10° W 23:35:57 74° SSW 23:54:50 10° ESE
Meteor 2-2 Rocket 4.4 23:36:50 10° N 23:42:50 80° ENE 23:46:55 22° SSE
Cosmos 1486 Rocket 4.4 23:39:32 10° NNW 23:44:31 47° WSW 23:46:54 28° SSW
USA 267 4.3 23:44:56 10° ENE 23:51:08 48° N 23:57:21 10° WNW
Cosmos 2360 Rocket 2.9 23:46:15 10° NNW 23:51:50 54° NE 23:57:23 10° SE
